| time (UTC) | temp F | wind direction | speed knots | gust knots | rain 1hr in | rain 24hr in | rain mn in | humidity % | barometer mb |
| 20260507144016 | 58 | 225 | 4.3 | 9.6 | 0.00 | 0.00 | 0.00 | 67 | 1017.5 |
| 20260507143017 | 58 | 248 | 4.3 | 7.0 | 0.00 | 0.00 | 0.00 | 70 | 1017.5 |
| 20260507142016 | 57 | 248 | 3.5 | 7.8 | 0.00 | 0.00 | 0.00 | 73 | 1017.5 |
| 20260507141016 | 56 | 248 | 5.2 | 10.4 | 0.00 | 0.00 | 0.00 | 71 | 1017.5 |
| 20260507140017 | 56 | 248 | 3.5 | 7.8 | 0.00 | 0.01 | 0.00 | 73 | 1017.7 |
| 20260507135016 | 55 | 225 | 3.5 | 7.8 | 0.00 | 0.01 | 0.00 | 73 | 1017.6 |
| 20260507134016 | 55 | 248 | 3.5 | 7.0 | 0.00 | 0.01 | 0.00 | 76 | 1017.9 |
| 20260507133016 | 54 | 225 | 1.7 | 5.2 | 0.00 | 0.01 | 0.00 | 75 | 1017.8 |
| 20260507132016 | 53 | 225 | 1.7 | 5.2 | 0.00 | 0.01 | 0.00 | 78 | 1017.9 |
| 20260507131016 | 52 | 225 | 1.7 | 5.2 | 0.00 | 0.01 | 0.00 | 77 | 1017.9 |
| 20260507130017 | 51 | 248 | 1.7 | 5.2 | 0.00 | 0.01 | 0.00 | 81 | 1018.0 |
| 20260507125036 | 50 | 0.0 | 2.6 | 0.00 | 0.01 | 0.00 | 81 | 1018.0 | |
| 20260507124016 | 50 | 0.0 | 2.6 | 0.00 | 0.01 | 0.00 | 82 | 1018.1 | |
| 20260507123016 | 49 | 0.0 | 0.9 | 0.00 | 0.01 | 0.00 | 83 | 1018.1 | |
| 20260507122016 | 47 | 0.0 | 0.9 | 0.00 | 0.01 | 0.00 | 86 | 1018.3 | |
| 20260507121016 | 46 | 0.0 | 1.7 | 0.00 | 0.01 | 0.00 | 87 | 1018.0 | |
| 20260507120036 | 44 | 0.0 | 0.9 | 0.00 | 0.01 | 0.00 | 89 | 1018.0 | |
| 20260507115016 | 42 | 0.0 | 0.9 | 0.00 | 0.01 | 0.00 | 91 | 1018.1 | |
| 20260507114016 | 41 | 0.0 | 0.9 | 0.00 | 0.01 | 0.00 | 91 | 1018.0 | |
| 20260507113016 | 41 | 0.0 | 0.9 | 0.00 | 0.01 | 0.00 | 90 | 1018.0 | |
| 20260507112036 | 41 | 0.0 | 0.9 | 0.00 | 0.01 | 0.00 | 90 | 1018.0 | |
| 20260507111016 | 41 | 0.0 | 0.0 | 0.00 | 0.01 | 0.00 | 90 | 1018.0 | |
| 20260507110016 | 41 | 0.0 | 0.0 | 0.00 | 0.01 | 0.00 | 90 | 1017.9 | |
| 20260507105016 | 41 | 0.0 | 0.0 | 0.00 | 0.01 | 0.00 | 90 | 1017.8 | |
| 20260507104016 | 41 | 0.0 | 0.0 | 0.00 | 0.01 | 0.00 | 90 | 1017.8 | |
| 20260507103016 | 41 | 0.0 | 0.0 | 0.00 | 0.01 | 0.00 | 89 | 1017.8 | |
| 20260507102016 | 42 | 0.0 | 0.0 | 0.00 | 0.01 | 0.00 | 88 | 1017.9 | |
| 20260507101016 | 42 | 0.0 | 0.0 | 0.00 | 0.01 | 0.00 | 89 | 1018.0 | |
| 20260507100016 | 42 | 0.0 | 0.0 | 0.00 | 0.01 | 0.00 | 88 | 1017.9 | |
| 20260507095016 | 42 | 0.0 | 0.0 | 0.00 | 0.01 | 0.00 | 88 | 1017.9 | |
| 20260507094016 | 42 | 0.0 | 2.6 | 0.00 | 0.01 | 0.00 | 88 | 1018.0 | |
| 20260507093016 | 42 | 0.0 | 0.0 | 0.00 | 0.01 | 0.00 | 88 | 1018.0 | |
| 20260507092016 | 42 | 0.0 | 0.0 | 0.00 | 0.01 | 0.00 | 88 | 1018.0 | |
| 20260507091018 | 42 | 0.0 | 0.0 | 0.00 | 0.01 | 0.00 | 89 | 1018.0 | |
| 20260507090016 | 41 | 0.0 | 0.0 | 0.00 | 0.01 | 0.00 | 89 | 1018.0 | |
| 20260507085016 | 41 | 0.0 | 0.0 | 0.00 | 0.01 | 0.00 | 89 | 1018.2 | |
| 20260507084016 | 41 | 0.0 | 0.0 | 0.00 | 0.01 | 0.00 | 88 | 1018.2 | |
| 20260507083016 | 42 | 0.0 | 0.0 | 0.00 | 0.01 | 0.00 | 88 | 1018.4 | |
| 20260507082016 | 42 | 0.0 | 0.0 | 0.00 | 0.01 | 0.00 | 88 | 1018.4 | |
| 20260507081016 | 42 | 0.0 | 0.0 | 0.00 | 0.01 | 0.00 | 88 | 1018.3 | |
| 20260507080016 | 42 | 0.0 | 0.0 | 0.00 | 0.01 | 0.00 | 87 | 1018.4 | |
| 20260507075016 | 42 | 0.0 | 0.0 | 0.00 | 0.01 | 0.00 | 87 | 1018.3 | |
| 20260507074036 | 42 | 0.0 | 0.0 | 0.00 | 0.01 | 0.00 | 87 | 1018.2 | |
| 20260507073016 | 43 | 0.0 | 0.0 | 0.00 | 0.01 | 0.00 | 86 | 1018.3 | |
| 20260507072016 | 43 | 0.0 | 0.0 | 0.00 | 0.01 | 0.00 | 85 | 1018.3 | |
| 20260507071016 | 43 | 0.0 | 0.0 | 0.00 | 0.01 | 0.00 | 85 | 1018.6 | |
| 20260507070016 | 44 | 0.0 | 0.0 | 0.00 | 0.01 | 0.00 | 84 | 1018.6 | |
| 20260507065056 | 44 | 0.0 | 0.0 | 0.00 | 0.01 | 0.00 | 84 | 1018.9 | |
| 20260507064016 | 44 | 0.0 | 0.0 | 0.00 | 0.01 | 0.00 | 83 | 1018.8 | |
| 20260507063016 | 45 | 0.0 | 0.0 | 0.00 | 0.01 | 0.00 | 83 | 1019.0 | |
| 20260507062016 | 45 | 0.0 | 0.0 | 0.00 | 0.01 | 0.00 | 82 | 1019.0 | |
| 20260507061016 | 46 | 0.0 | 0.0 | 0.00 | 0.01 | 0.00 | 81 | 1019.2 | |
| 20260507060036 | 46 | 0.0 | 0.0 | 0.00 | 0.01 | 0.00 | 81 | 1019.2 | |
| 20260507055016 | 46 | 0.0 | 0.0 | 0.00 | 0.01 | 0.00 | 80 | 1019.2 | |
| 20260507054016 | 47 | 0.0 | 0.0 | 0.00 | 0.01 | 0.00 | 79 | 1019.2 | |
| 20260507053016 | 47 | 0.0 | 0.0 | 0.00 | 0.01 | 0.00 | 79 | 1019.3 | |
| 20260507052016 | 47 | 0.0 | 0.0 | 0.00 | 0.01 | 0.00 | 80 | 1019.1 | |
| 20260507051016 | 47 | 0.0 | 0.0 | 0.00 | 0.01 | 0.00 | 80 | 1019.1 | |
| 20260507050016 | 47 | 0.0 | 0.0 | 0.00 | 0.01 | 0.01 | 79 | 1019.3 | |
| 20260507045057 | 47 | 0.0 | 0.0 | 0.00 | 0.01 | 0.01 | 78 | 1019.2 | |
| 20260507044017 | 47 | 0.0 | 0.0 | 0.00 | 0.01 | 0.01 | 77 | 1019.1 | |
| 20260507043017 | 47 | 0.0 | 0.0 | 0.00 | 0.01 | 0.01 | 76 | 1019.2 | |
| 20260507042017 | 46 | 0.0 | 0.0 | 0.00 | 0.02 | 0.01 | 76 | 1019.3 | |
| 20260507041037 | 46 | 0.0 | 0.0 | 0.00 | 0.02 | 0.01 | 76 | 1019.3 | |
| 20260507040018 | 45 | 0.0 | 0.0 | 0.00 | 0.02 | 0.01 | 77 | 1019.0 | |
| 20260507035017 | 45 | 0.0 | 0.0 | 0.00 | 0.02 | 0.01 | 78 | 1019.1 | |
| 20260507034017 | 45 | 0.0 | 0.0 | 0.00 | 0.03 | 0.01 | 78 | 1019.1 | |
| 20260507033017 | 45 | 0.0 | 0.0 | 0.00 | 0.03 | 0.01 | 77 | 1019.1 | |
| 20260507032057 | 43 | 0.0 | 0.0 | 0.00 | 0.03 | 0.01 | 78 | 1019.1 | |
| 20260507031017 | 43 | 0.0 | 0.0 | 0.00 | 0.03 | 0.01 | 77 | 1019.2 | |
| 20260507030017 | 43 | 0.0 | 0.0 | 0.00 | 0.03 | 0.01 | 78 | 1019.0 | |
| 20260507025017 | 43 | 0.0 | 0.0 | 0.00 | 0.03 | 0.01 | 77 | 1018.9 | |
| 20260507024017 | 43 | 0.0 | 0.0 | 0.00 | 0.03 | 0.01 | 74 | 1018.6 | |
| 20260507023037 | 44 | 0.0 | 0.0 | 0.00 | 0.03 | 0.01 | 72 | 1018.6 | |
| 20260507022017 | 46 | 0.0 | 0.0 | 0.00 | 0.03 | 0.01 | 72 | 1018.7 | |
| 20260507021017 | 46 | 0.0 | 0.0 | 0.00 | 0.03 | 0.01 | 72 | 1018.5 | |
| 20260507020017 | 47 | 0.0 | 0.0 | 0.00 | 0.03 | 0.01 | 70 | 1018.5 | |
| 20260507015037 | 48 | 0.0 | 0.0 | 0.00 | 0.03 | 0.01 | 68 | 1018.3 | |
| 20260507014017 | 49 | 0.0 | 0.0 | 0.00 | 0.03 | 0.01 | 66 | 1018.2 | |
| 20260507013017 | 50 | 0.0 | 0.0 | 0.00 | 0.03 | 0.01 | 64 | 1018.1 | |
| 20260507012017 | 52 | 0.0 | 0.0 | 0.00 | 0.03 | 0.01 | 58 | 1018.2 | |
| 20260507011017 | 53 | 0.0 | 0.0 | 0.00 | 0.03 | 0.01 | 58 | 1018.2 | |
| 20260507010017 | 55 | 0.0 | 0.0 | 0.00 | 0.03 | 0.01 | 52 | 1018.3 | |
| 20260507005057 | 57 | 0.0 | 0.0 | 0.00 | 0.03 | 0.01 | 49 | 1018.2 | |
| 20260507004017 | 58 | 0.0 | 0.0 | 0.00 | 0.03 | 0.01 | 45 | 1018.2 | |
| 20260507003017 | 60 | 0.0 | 0.0 | 0.00 | 0.03 | 0.01 | 42 | 1018.2 | |
| 20260507002017 | 63 | 0.0 | 0.0 | 0.00 | 0.03 | 0.01 | 41 | 1018.5 | |
| 20260507001016 | 60 | 0.0 | 0.0 | 0.00 | 0.03 | 0.01 | 45 | 1018.2 | |
| 20260507000017 | 60 | 0.0 | 0.0 | 0.00 | 0.03 | 0.01 | 42 | 1018.2 | |
| 20260506235017 | 60 | 45 | 0.9 | 2.6 | 0.00 | 0.03 | 0.01 | 39 | 1018.3 |
| 20260506234016 | 60 | 23 | 1.7 | 5.2 | 0.00 | 0.03 | 0.01 | 39 | 1018.3 |
| 20260506233017 | 61 | 225 | 1.7 | 6.1 | 0.00 | 0.03 | 0.01 | 38 | 1018.5 |
| 20260506232017 | 62 | 315 | 0.9 | 5.2 | 0.00 | 0.03 | 0.01 | 40 | 1018.6 |
| 20260506231017 | 61 | 0 | 0.9 | 3.5 | 0.00 | 0.03 | 0.01 | 42 | 1018.6 |
| 20260506230017 | 60 | 338 | 0.9 | 4.3 | 0.00 | 0.03 | 0.01 | 42 | 1018.6 |
| 20260506225037 | 60 | 45 | 2.6 | 7.0 | 0.00 | 0.03 | 0.01 | 39 | 1018.5 |
| 20260506224016 | 61 | 315 | 1.7 | 6.1 | 0.00 | 0.03 | 0.01 | 41 | 1018.6 |
| 20260506223017 | 61 | 248 | 1.7 | 5.2 | 0.00 | 0.03 | 0.01 | 41 | 1018.5 |
| 20260506222016 | 61 | 338 | 1.7 | 5.2 | 0.00 | 0.03 | 0.01 | 44 | 1018.4 |
| 20260506221016 | 60 | 315 | 2.6 | 7.8 | 0.00 | 0.03 | 0.01 | 41 | 1018.4 |
| 20260506220016 | 60 | 315 | 2.6 | 7.0 | 0.00 | 0.03 | 0.01 | 41 | 1018.7 |
| 20260506215016 | 61 | 0 | 3.5 | 10.4 | 0.00 | 0.03 | 0.01 | 39 | 1018.6 |
| 20260506214037 | 61 | 248 | 2.6 | 6.1 | 0.00 | 0.03 | 0.01 | 42 | 1018.9 |
| 20260506213016 | 60 | 315 | 3.5 | 6.1 | 0.00 | 0.03 | 0.01 | 44 | 1019.1 |
| 20260506212016 | 61 | 315 | 1.7 | 5.2 | 0.00 | 0.03 | 0.01 | 45 | 1019.1 |
| 20260506211017 | 59 | 23 | 3.5 | 7.0 | 0.00 | 0.03 | 0.01 | 40 | 1019.4 |
| 20260506210016 | 60 | 248 | 2.6 | 7.8 | 0.00 | 0.03 | 0.01 | 42 | 1019.3 |
| 20260506205016 | 60 | 315 | 2.6 | 6.1 | 0.00 | 0.03 | 0.01 | 41 | 1019.7 |
| 20260506204016 | 60 | 338 | 2.6 | 7.0 | 0.00 | 0.03 | 0.01 | 42 | 1019.7 |
| 20260506203017 | 60 | 315 | 5.2 | 12.2 | 0.00 | 0.03 | 0.01 | 41 | 1019.8 |
| 20260506202036 | 59 | 23 | 1.7 | 5.2 | 0.00 | 0.03 | 0.01 | 41 | 1019.9 |
| 20260506201016 | 60 | 23 | 1.7 | 6.1 | 0.00 | 0.03 | 0.01 | 40 | 1019.9 |
| 20260506200016 | 59 | 23 | 4.3 | 9.6 | 0.00 | 0.03 | 0.01 | 45 | 1020.1 |
| 20260506195016 | 59 | 315 | 2.6 | 8.7 | 0.00 | 0.03 | 0.01 | 44 | 1020.0 |
| 20260506194016 | 58 | 315 | 3.5 | 9.6 | 0.00 | 0.03 | 0.01 | 47 | 1020.1 |
| 20260506193016 | 58 | 68 | 4.3 | 8.7 | 0.00 | 0.03 | 0.01 | 43 | 1020.1 |
| 20260506192016 | 58 | 45 | 4.3 | 10.4 | 0.00 | 0.03 | 0.01 | 42 | 1019.9 |
| 20260506191036 | 58 | 23 | 4.3 | 8.7 | 0.00 | 0.03 | 0.01 | 42 | 1020.1 |
| 20260506190017 | 58 | 23 | 3.5 | 12.2 | 0.00 | 0.03 | 0.01 | 46 | 1020.1 |
| 20260506185016 | 58 | 23 | 4.3 | 9.6 | 0.00 | 0.03 | 0.01 | 42 | 1020.1 |
| 20260506184016 | 58 | 315 | 3.5 | 7.8 | 0.00 | 0.03 | 0.01 | 39 | 1020.3 |
| 20260506183016 | 57 | 23 | 4.3 | 8.7 | 0.00 | 0.03 | 0.01 | 44 | 1020.2 |
| 20260506182017 | 57 | 315 | 3.5 | 9.6 | 0.00 | 0.03 | 0.01 | 41 | 1020.3 |
| 20260506181016 | 58 | 23 | 4.3 | 10.4 | 0.00 | 0.03 | 0.01 | 40 | 1020.3 |
| 20260506180016 | 58 | 315 | 2.6 | 7.0 | 0.00 | 0.03 | 0.01 | 45 | 1020.5 |
| 20260506175016 | 58 | 315 | 2.6 | 4.3 | 0.00 | 0.03 | 0.01 | 48 | 1020.6 |
| 20260506174016 | 57 | 338 | 3.5 | 7.8 | 0.00 | 0.04 | 0.01 | 42 | 1020.5 |
| 20260506173016 | 56 | 23 | 4.3 | 8.7 | 0.00 | 0.05 | 0.01 | 43 | 1020.6 |
| 20260506172016 | 56 | 23 | 2.6 | 7.8 | 0.00 | 0.06 | 0.01 | 44 | 1020.6 |
| 20260506171017 | 55 | 45 | 3.5 | 7.8 | 0.00 | 0.06 | 0.01 | 48 | 1020.7 |
| 20260506170016 | 55 | 315 | 2.6 | 7.0 | 0.00 | 0.06 | 0.01 | 49 | 1020.8 |
| 20260506165016 | 55 | 23 | 2.6 | 6.1 | 0.00 | 0.07 | 0.01 | 44 | 1020.8 |
| 20260506164036 | 55 | 315 | 3.5 | 6.1 | 0.00 | 0.09 | 0.01 | 45 | 1020.9 |
| 20260506163036 | 55 | 338 | 2.6 | 8.7 | 0.00 | 0.09 | 0.01 | 48 | 1020.8 |
| 20260506162038 | 54 | 45 | 3.5 | 7.0 | 0.00 | 0.09 | 0.01 | 52 | 1020.8 |
| 20260506161016 | 54 | 315 | 2.6 | 6.1 | 0.00 | 0.09 | 0.01 | 50 | 1020.8 |
| 20260506160016 | 54 | 315 | 3.5 | 7.8 | 0.00 | 0.09 | 0.01 | 50 | 1020.6 |
| 20260506155016 | 54 | 23 | 3.5 | 6.1 | 0.00 | 0.09 | 0.01 | 51 | 1020.7 |
| 20260506154016 | 55 | 315 | 1.7 | 5.2 | 0.00 | 0.10 | 0.01 | 55 | 1020.6 |
| 20260506153016 | 55 | 315 | 1.7 | 3.5 | 0.00 | 0.11 | 0.01 | 56 | 1020.8 |
| 20260506152016 | 54 | 315 | 1.7 | 5.2 | 0.00 | 0.11 | 0.01 | 57 | 1020.6 |
| 20260506151016 | 54 | 315 | 3.5 | 9.6 | 0.00 | 0.11 | 0.01 | 56 | 1020.6 |
| 20260506150016 | 54 | 315 | 3.5 | 7.0 | 0.01 | 0.11 | 0.01 | 57 | 1020.5 |
| 20260506145016 | 53 | 293 | 1.7 | 4.3 | 0.01 | 0.11 | 0.01 | 63 | 1020.4 |